[[{"header":{"parameterUnit":"m.s-1","parameterCategory":2,"la1":30.2991,"la2":30.254,"lo1":-89.0895,"lo2":-89.0444,"dy":0.0017,"dx":0.0017,"nx":28,"ny":28,"refTime":"2024-03-15T21:00:00:Z","depth":"0","parameterNumber":2,"parameterNumberName":"U-component_of_CURRENTS"},"data":[0,0,0,0,0,0,0,0,0,0,0,0,0,0,0,0,0,0,0,0,0,0,0,0,0,0,0,0,0,0,0,0,0,0,0,0,0,0,0,0,0,0,0,0,0,0,0,0,0,0,0,0,0,0,0,0,0,0,-0.3823,-0.3823,0,-0.3748,-0.3747,-0.3745,-0.3632,-0.3631,-0.363,-0.3629,-0.3481,-0.3478,-0.3475,0,0,0,0,0,0,0,0,0,0,0,0,0,-0.3747,-0.3749,-0.3823,-0.3823,-0.3823,-0.3748,-0.3747,-0.3745,-0.3633,-0.3631,-0.363,-0.3628,-0.3482,-0.3479,-0.3475,0,0,0,0,0,0,0,0,0,0,0,0,0,-0.3729,-0.3749,-0.3823,-0.3764,-0.3759,-0.3749,-0.3746,-0.3744,-0.3633,-0.3631,-0.3629,-0.3628,-0.3483,-0.3479,-0.3475,-0.3484,0,0,-0.3462,-0.346,0,0,0,0,0,0,0,0,-0.373,-0.373,-0.3773,-0.3768,-0.3762,-0.3706,-0.3666,-0.3657,-0.3633,-0.3671,-0.3629,-0.3627,-0.3556,-0.3546,-0.3524,-0.3477,-0.3471,-0.3461,-0.3459,-0.3457,-0.3456,0,0,0,0,0,0,0,-0.3731,-0.3732,-0.3784,-0.3773,-0.3767,-0.3701,-0.3696,-0.3663,-0.3617,-0.3668,-0.3662,-0.3668,-0.3551,-0.3529,-0.352,-0.3469,-0.3461,-0.3458,-0.3455,-0.3453,-0.3419,-0.3421,0,0,0,0,0,0,-0.3768,-0.3735,-0.3787,-0.3783,-0.3751,-0.3705,-0.3699,-0.3718,-0.3618,-0.3605,-0.367,-0.3663,-0.3537,-0.3525,-0.3514,-0.3527,-0.3457,-0.3453,-0.3451,-0.3418,-0.342,-0.3421,0,0,0,0,0,0,-0.3766,-0.3773,-0.379,-0.3763,-0.3761,-0.371,-0.3731,-0.3718,-0.3694,-0.3622,-0.3604,-0.366,-0.3535,-0.352,-0.3496,-0.352,-0.3451,-0.3447,-0.3416,-0.3418,-0.3421,-0.3548,0,0,0,0,0,0,-0.3765,-0.3774,-0.3788,-0.3766,-0.3765,-0.3799,-0.3733,-0.3718,-0.3706,-0.3696,-0.3609,-0.3593,-0.3533,-0.3504,-0.3492,-0.3513,-0.3444,-0.3414,-0.3417,-0.342,-0.3542,-0.3555,-0.3566,0,0,0,0,0,-0.3762,-0.3806,-0.379,-0.3796,-0.3791,-0.3801,-0.3794,-0.3743,-0.3707,-0.3711,-0.3654,-0.3596,-0.3515,-0.3502,-0.3488,-0.3508,-0.3412,-0.3416,-0.342,-0.3537,-0.3552,-0.3566,0,0,0,0,0,0,-0.3779,-0.3799,-0.378,-0.3826,-0.3819,-0.3786,-0.3789,-0.3757,-0.3714,-0.3704,-0.3618,-0.36,-0.3589,-0.3538,-0.3525,-0.3509,-0.3454,-0.3455,-0.3548,-0.3562,-0.3573,-0.3578,-0.344,0,0,0,0,0,-0.3795,-0.3829,-0.3829,-0.3862,-0.3867,-0.3828,-0.3822,-0.3798,-0.3766,-0.3744,-0.3686,-0.3631,-0.3596,-0.357,-0.3533,-0.3525,-0.3435,-0.3529,-0.3541,-0.3552,-0.3548,-0.3472,-0.3476,-0.3434,-0.3434,-0.3433,0,0,-0.3812,-0.3826,-0.3845,-0.3867,-0.3853,-0.3877,-0.3817,-0.3832,-0.384,-0.3738,-0.3724,-0.3675,-0.3606,-0.3597,-0.3587,-0.3553,-0.3508,-0.3556,-0.3566,-0.3556,-0.3476,-0.348,-0.3484,-0.3436,-0.3436,-0.3435,0,0,-0.3869,-0.3877,-0.3921,-0.393,-0.3939,-0.3921,-0.3934,-0.3914,-0.389,-0.3885,-0.3815,-0.3781,-0.3726,-0.3678,-0.3647,-0.3704,-0.3581,-0.3696,-0.375,-0.3678,-0.368,-0.3681,-0.353,-0.3517,-0.3694,-0.3694,-0.3694,0,-0.3879,-0.3935,-0.3933,-0.3975,-0.3982,-0.395,-0.3985,-0.3975,-0.3946,-0.3912,-0.39,-0.3801,-0.3762,-0.3721,-0.3753,-0.373,-0.3641,-0.3702,-0.3692,-0.3691,-0.369,-0.3535,-0.3519,-0.3701,-0.37,-0.3699,-0.3699,0,-0.3971,-0.4003,-0.4033,-0.4071,-0.4081,-0.4111,-0.4107,-0.41,-0.4067,-0.4025,-0.3981,-0.3929,-0.3849,-0.3856,-0.3828,-0.3804,-0.3724,-0.3722,-0.3654,-0.3702,-0.3535,-0.3516,-0.371,-0.3708,-0.3706,-0.3704,0,0,-0.401,-0.4079,-0.4085,-0.4078,-0.4129,-0.4122,-0.4169,-0.4147,-0.4104,-0.4097,-0.4021,-0.4024,-0.3959,-0.3923,-0.3877,-0.3844,-0.3771,-0.3796,-0.3789,-0.3641,-0.3545,-0.3426,-0.3391,-0.377,-0.3769,-0.3768,-0.3415,0,-0.4063,-0.4106,-0.4169,-0.4197,-0.419,-0.4207,-0.4225,-0.4202,-0.4156,-0.4077,-0.4031,-0.3954,-0.3994,-0.3937,-0.3924,-0.3797,-0.3733,-0.3862,-0.3524,-0.3512,-0.3399,-0.3371,-0.3271,-0.2946,-0.3396,-0.3392,-0.339,0,-0.4132,-0.4121,-0.4147,-0.4161,-0.417,-0.42,-0.4148,-0.4181,-0.4105,-0.4063,-0.4006,-0.393,-0.3869,-0.3897,-0.3728,-0.3805,-0.3695,-0.3612,-0.3596,-0.3428,-0.3359,-0.2979,-0.2892,-0.2889,-0.3359,-0.3361,-0.3363,0,-0.406,-0.412,-0.4105,-0.4116,-0.4136,-0.4144,-0.4174,-0.4137,-0.4075,-0.403,-0.3911,-0.3876,-0.3756,-0.3697,-0.3558,-0.3625,-0.333,-0.3378,-0.3152,-0.3137,-0.2955,-0.2929,-0.2823,-0.3251,-0.3252,-0.3253,-0.3254,0,-0.4082,-0.4076,-0.4047,-0.4031,-0.3968,-0.4058,-0.3986,-0.4027,-0.3963,-0.3835,-0.3876,-0.3727,-0.3706,-0.3531,-0.3482,-0.3224,-0.3253,-0.3128,-0.3047,-0.2992,-0.2975,-0.2886,-0.2944,-0.324,-0.3243,-0.3245,-0.3248,0,-0.4013,-0.4045,-0.3957,-0.3926,-0.3928,-0.3861,-0.3843,-0.3758,-0.3783,-0.3608,-0.3575,-0.3516,-0.3343,-0.3255,-0.3084,-0.3034,-0.2802,-0.2772,-0.2674,-0.2592,-0.2425,-0.2493,-0.2255,-0.2189,-0.2451,-0.2446,-0.2442,0,-0.3976,-0.3913,-0.3789,-0.3711,-0.3702,-0.3629,-0.357,-0.3632,-0.354,-0.3455,-0.3334,-0.3161,-0.2991,-0.2696,-0.2617,-0.2426,-0.2518,-0.2231,-0.2383,-0.237,-0.2387,-0.2461,-0.2431,-0.2151,-0.2145,-0.214,-0.2136,0,-0.3783,-0.372,-0.3617,-0.3444,-0.3355,-0.3253,-0.321,-0.3111,-0.3158,-0.3046,-0.2911,-0.2795,-0.2546,-0.2351,-0.215,-0.2063,-0.2209,-0.2119,-0.2139,-0.2167,-0.2202,-0.2113,-0.239,-0.2091,-0.2096,-0.2099,-0.2101,-0.2103,-0.3545,-0.3402,-0.3243,-0.3093,-0.3003,-0.2889,-0.276,-0.2741,-0.2614,-0.2479,-0.2517,-0.2337,-0.221,-0.1932,-0.1832,-0.1683,-0.1801,-0.168,-0.1753,-0.1819,-0.1815,-0.1965,-0.1587,-0.1588,-0.159,-0.1591,-0.1592,0,-0.3165,-0.3084,-0.2919,-0.2713,-0.2536,-0.2606,-0.2494,-0.2355,-0.2197,-0.2154,-0.2043,-0.19,-0.1707,-0.1635,-0.149,-0.1392,-0.1404,-0.1368,-0.1489,-0.147,-0.1589,-0.1644,-0.1221,-0.1221,-0.1221,-0.1221,-0.1221,-0.1222,-0.2967,-0.2714,-0.2658,-0.2287,-0.2178,-0.1916,-0.1828,-0.1752,-0.1694,-0.1531,-0.148,-0.1421,-0.1454,-0.154,-0.141,-0.132,-0.1334,-0.1252,-0.1303,-0.1467,-0.1506,-0.1542,-0.1607,-0.1185,-0.1185,-0.1135,-0.1135,-0.1135]},{"header":{"parameterUnit":"m.s-1","parameterCategory":2,"la1":30.2991,"la2":30.254,"lo1":-89.0895,"lo2":-89.0444,"dy":0.0017,"dx":0.0017,"nx":28,"ny":28,"refTime":"2024-03-15T21:00:00:Z","depth":"0","parameterNumber":3,"parameterNumberName":"V-component_of_CURRENTS"},"data":[0,0,0,0,0,0,0,0,0,0,0,0,0,0,0,0,0,0,0,0,0,0,0,0,0,0,0,0,0,0,0,0,0,0,0,0,0,0,0,0,0,0,0,0,0,0,0,0,0,0,0,0,0,0,0,0,0,0,-0.0615,-0.0614,0,-0.0408,-0.0405,-0.0402,-0.0276,-0.0275,-0.0275,-0.0275,-0.0106,-0.0101,-0.0097,0,0,0,0,0,0,0,0,0,0,0,0,0,-0.0808,-0.0806,-0.0616,-0.0613,-0.0611,-0.0408,-0.0405,-0.0401,-0.0276,-0.0275,-0.0275,-0.0275,-0.0107,-0.0102,-0.0097,0,0,0,0,0,0,0,0,0,0,0,0,0,-0.0671,-0.0805,-0.0616,-0.0527,-0.0517,-0.0409,-0.0405,-0.0401,-0.0276,-0.0275,-0.0275,-0.0275,-0.0109,-0.0102,-0.0096,-0.0063,0,0,-0.0076,-0.0073,0,0,0,0,0,0,0,0,-0.0679,-0.0664,-0.0542,-0.0533,-0.0522,-0.0371,-0.0411,-0.0291,-0.0276,-0.0363,-0.0275,-0.0275,-0.0201,-0.0187,-0.0142,-0.0055,-0.0048,-0.0076,-0.0072,-0.0069,-0.0067,0,0,0,0,0,0,0,-0.0689,-0.0671,-0.0529,-0.054,-0.0528,-0.0465,-0.0446,-0.0386,-0.0284,-0.0355,-0.0347,-0.0331,-0.0195,-0.0148,-0.0137,-0.0045,-0.0076,-0.007,-0.0066,-0.0064,0.0085,0.0085,0,0,0,0,0,0,-0.0728,-0.0681,-0.0535,-0.0523,-0.0606,-0.0463,-0.0441,-0.0416,-0.0283,-0.0263,-0.0331,-0.0326,-0.0159,-0.0145,-0.0131,-0.0085,-0.0069,-0.0063,-0.0059,0.0085,0.0085,0.0085,0,0,0,0,0,0,-0.0733,-0.0717,-0.0544,-0.0601,-0.0575,-0.0461,-0.0434,-0.0413,-0.0356,-0.0265,-0.0245,-0.0297,-0.0159,-0.014,-0.0071,-0.0077,-0.006,-0.0054,0.0085,0.0085,0.0085,0.0008,0,0,0,0,0,0,-0.0739,-0.072,-0.0709,-0.0604,-0.0574,-0.0474,-0.0434,-0.0409,-0.035,-0.034,-0.023,-0.0214,-0.0157,-0.0082,-0.0065,-0.0068,-0.0049,0.0085,0.0085,0.0085,0.001,0.0005,0.0001,0,0,0,0,0,-0.0747,-0.074,-0.0709,-0.0691,-0.0564,-0.0474,-0.0451,-0.0367,-0.0349,-0.0316,-0.0251,-0.0217,-0.0069,-0.0076,-0.0057,-0.0058,0.0085,0.0085,0.0085,0.0012,0.0006,0.0001,0,0,0,0,0,0,-0.0821,-0.0724,-0.0688,-0.0652,-0.0568,-0.0454,-0.0419,-0.037,-0.0288,-0.0284,-0.0205,-0.0183,-0.0127,-0.0081,-0.009,-0.0015,0.0009,0.0013,-0.0053,-0.0058,-0.0063,-0.0085,-0.0044,0,0,0,0,0,-0.0835,-0.0797,-0.0697,-0.0665,-0.0628,-0.0525,-0.0479,-0.0422,-0.0343,-0.0304,-0.0236,-0.0169,-0.0111,-0.0077,-0.0014,0.0031,0.0081,0.004,0.0035,0.0031,0.0025,0.0079,0.0078,0.0086,0.0086,0.0086,0,0,-0.086,-0.0797,-0.0778,-0.0677,-0.0605,-0.0554,-0.0494,-0.0426,-0.0388,-0.0303,-0.0238,-0.0178,-0.0102,-0.0049,-0.0021,-0.0011,0.0061,0.0031,0.0026,0.0023,0.0079,0.0078,0.0078,0.0086,0.0086,0.0086,0,0,-0.0882,-0.0829,-0.08,-0.0736,-0.0636,-0.0574,-0.0561,-0.0451,-0.0403,-0.0334,-0.0275,-0.0221,-0.0121,-0.0072,-0.0036,-0.003,0.0036,-0.0012,-0.0054,-0.0001,-0.0002,-0.0002,0.0084,0.0092,-0.0018,-0.0018,-0.0018,0,-0.0915,-0.0867,-0.0778,-0.0732,-0.0698,-0.0593,-0.0567,-0.0496,-0.0382,-0.036,-0.0327,-0.0198,-0.0135,-0.0083,-0.0078,-0.0042,0.0011,-0.0041,-0.0009,-0.0008,-0.0007,0.0081,0.0091,-0.0021,-0.0021,-0.0021,-0.002,0,-0.0904,-0.0874,-0.0854,-0.0767,-0.0712,-0.0675,-0.058,-0.0531,-0.0477,-0.0414,-0.0347,-0.0252,-0.0187,-0.0156,-0.011,-0.0075,-0.003,-0.0021,-0.0001,-0.0012,0.0082,0.0094,-0.0027,-0.0025,-0.0024,-0.0023,0,0,-0.0976,-0.0872,-0.0868,-0.0848,-0.0739,-0.0698,-0.0646,-0.0576,-0.0548,-0.0453,-0.0422,-0.0321,-0.028,-0.0237,-0.0174,-0.0121,-0.0055,-0.0073,-0.0068,0.0003,0.0091,0.0147,0.0167,-0.0043,-0.0042,-0.0041,0.0161,0,-0.1003,-0.0958,-0.0894,-0.0869,-0.0845,-0.0759,-0.072,-0.0645,-0.0568,-0.0507,-0.0424,-0.0357,-0.0308,-0.0272,-0.0221,-0.0087,-0.0031,-0.0108,0.01,0.0107,0.0149,0.0179,0.0215,0.0399,0.0173,0.0175,0.0176,0,-0.1021,-0.0991,-0.0976,-0.0931,-0.0914,-0.0888,-0.0823,-0.0774,-0.0668,-0.0612,-0.0543,-0.0451,-0.0355,-0.0317,-0.012,-0.017,-0.0058,0.0045,0.0055,0.0139,0.0184,0.0372,0.043,0.0585,0.0196,0.0194,0.0193,0,-0.1113,-0.1061,-0.1063,-0.1042,-0.096,-0.0956,-0.0922,-0.0819,-0.0773,-0.0679,-0.0621,-0.0507,-0.0418,-0.0286,-0.0067,-0.0092,0.0167,0.0156,0.0315,0.0322,0.0411,0.0423,0.0632,0.0274,0.0273,0.0273,0.0272,0,-0.1174,-0.1183,-0.1112,-0.111,-0.1123,-0.1043,-0.1027,-0.0974,-0.0877,-0.0813,-0.0695,-0.0592,-0.0404,-0.0221,-0.0069,0.0183,0.0165,0.0324,0.0375,0.0388,0.0396,0.0579,0.0636,0.028,0.0279,0.0277,0.0276,0,-0.1268,-0.1224,-0.1225,-0.117,-0.1162,-0.1172,-0.1102,-0.1071,-0.0976,-0.0885,-0.0852,-0.0634,-0.0387,-0.0171,0.0096,0.021,0.0538,0.0509,0.0533,0.0581,0.0834,0.0883,0.1145,0.1252,0.0707,0.0709,0.0711,0,-0.1311,-0.1314,-0.1278,-0.1284,-0.1268,-0.1259,-0.1237,-0.1147,-0.109,-0.0884,-0.0839,-0.0576,-0.0363,0.0056,0.031,0.0598,0.0695,0.0781,0.0717,0.0872,0.0965,0.0987,0.1059,0.0827,0.083,0.0833,0.0835,0,-0.1384,-0.1365,-0.1356,-0.1367,-0.1365,-0.1347,-0.1307,-0.1267,-0.1127,-0.0997,-0.0761,-0.0569,-0.016,0.021,0.056,0.0713,0.0901,0.0837,0.0992,0.1076,0.1122,0.124,0.0692,0.0856,0.0854,0.0852,0.0851,0.085,-0.1429,-0.1445,-0.1421,-0.1436,-0.1433,-0.1406,-0.1365,-0.1249,-0.1119,-0.082,-0.0709,-0.0312,0.0104,0.0619,0.0814,0.1178,0.1113,0.1251,0.1305,0.1318,0.1397,0.0906,0.1115,0.1114,0.1113,0.1113,0.1113,0,-0.1456,-0.1466,-0.1487,-0.1478,-0.1468,-0.1455,-0.1373,-0.1244,-0.1026,-0.0681,-0.0406,0.0149,0.0579,0.0983,0.1434,0.1629,0.1665,0.1709,0.175,0.1806,0.1382,0.136,0.1637,0.1637,0.1636,0.1636,0.1636,0.1636,-0.1473,-0.1489,-0.1494,-0.1489,-0.1478,-0.1419,-0.1352,-0.1097,-0.0814,-0.0225,0.0227,0.054,0.0971,0.1588,0.2008,0.2046,0.223,0.2198,0.2305,0.2,0.1961,0.1923,0.1917,0.2306,0.2306,0.2709,0.2713,0.2716]}],[{"header":{"parameterUnit":"m.s-1","parameterCategory":2,"la1":30.2991,"la2":30.254,"lo1":-89.0895,"lo2":-89.0444,"dy":0.0017,"dx":0.0017,"nx":28,"ny":28,"refTime":"2024-03-15T21:00:00:Z","depth":"2","parameterNumber":2,"parameterNumberName":"U-component_of_CURRENTS"},"data":[0,0,0,0,0,0,0,0,0,0,0,0,0,0,0,0,0,0,0,0,0,0,0,0,0,0,0,0,0,0,0,0,0,0,0,0,0,0,0,0,0,0,0,0,0,0,0,0,0,0,0,0,0,0,0,0,0,0,-0.2122,-0.2122,0,-0.216,-0.216,-0.216,-0.2151,-0.2151,-0.215,-0.215,-0.2165,-0.2165,-0.2166,0,0,0,0,0,0,0,0,0,0,0,0,0,-0.2007,-0.2009,-0.2122,-0.2122,-0.2123,-0.216,-0.216,-0.216,-0.2151,-0.2151,-0.215,-0.215,-0.2164,-0.2165,-0.2166,0,0,0,0,0,0,0,0,0,0,0,0,0,-0.2048,-0.201,-0.2121,-0.2127,-0.2128,-0.216,-0.216,-0.216,-0.2151,-0.2151,-0.215,-0.215,-0.2164,-0.2165,-0.2166,-0.2182,0,0,-0.2169,-0.217,0,0,0,0,0,0,0,0,-0.2046,-0.2052,-0.2125,-0.2126,-0.2128,-0.2154,-0.2125,-0.2168,-0.2151,-0.2137,-0.215,-0.2149,-0.2162,-0.2163,-0.2166,-0.2183,-0.2183,-0.2169,-0.217,-0.2171,-0.2171,0,0,0,0,0,0,0,-0.2043,-0.205,-0.2132,-0.2126,-0.2128,-0.2116,-0.2121,-0.2133,-0.2148,-0.2139,-0.2139,-0.2151,-0.2162,-0.2165,-0.2166,-0.2184,-0.2169,-0.217,-0.2171,-0.2171,-0.2237,-0.2238,0,0,0,0,0,0,-0.205,-0.2048,-0.2131,-0.2134,-0.209,-0.2119,-0.2124,-0.2142,-0.2149,-0.2151,-0.2151,-0.215,-0.2163,-0.2165,-0.2166,-0.2212,-0.217,-0.2171,-0.2172,-0.2236,-0.2237,-0.2239,0,0,0,0,0,0,-0.2048,-0.2057,-0.2129,-0.2094,-0.2103,-0.2122,-0.2142,-0.2144,-0.2161,-0.2159,-0.216,-0.2169,-0.2163,-0.2165,-0.2196,-0.2212,-0.2172,-0.2173,-0.2235,-0.2236,-0.2238,-0.2287,0,0,0,0,0,0,-0.2044,-0.2056,-0.2069,-0.2095,-0.2106,-0.2149,-0.2143,-0.2145,-0.217,-0.217,-0.2175,-0.2175,-0.2163,-0.2194,-0.2197,-0.2212,-0.2174,-0.2233,-0.2235,-0.2237,-0.2284,-0.229,-0.2295,0,0,0,0,0,-0.204,-0.2063,-0.207,-0.208,-0.2124,-0.215,-0.2154,-0.2162,-0.2172,-0.2177,-0.2193,-0.2175,-0.2209,-0.2197,-0.2199,-0.2215,-0.2232,-0.2235,-0.2237,-0.2281,-0.2289,-0.2295,0,0,0,0,0,0,-0.2022,-0.2066,-0.2073,-0.2109,-0.2128,-0.215,-0.216,-0.2177,-0.2194,-0.2186,-0.2198,-0.2199,-0.223,-0.2221,-0.2208,-0.224,-0.2215,-0.2218,-0.2247,-0.2254,-0.226,-0.2243,-0.2175,0,0,0,0,0,-0.2026,-0.2053,-0.2086,-0.2114,-0.2124,-0.2147,-0.2162,-0.216,-0.2182,-0.2189,-0.2214,-0.2226,-0.2241,-0.2247,-0.2255,-0.2279,-0.2256,-0.2289,-0.2295,-0.23,-0.2288,-0.2277,-0.228,-0.2247,-0.2247,-0.2247,0,0,-0.2021,-0.2056,-0.2067,-0.2111,-0.2125,-0.2154,-0.2153,-0.2165,-0.2192,-0.2188,-0.2243,-0.2251,-0.2254,-0.2278,-0.229,-0.2273,-0.23,-0.2303,-0.2307,-0.2293,-0.228,-0.2283,-0.2286,-0.2249,-0.2248,-0.2248,0,0,-0.203,-0.2061,-0.2081,-0.2105,-0.213,-0.2151,-0.2164,-0.2197,-0.2209,-0.2255,-0.226,-0.228,-0.2321,-0.2318,-0.2323,-0.2367,-0.2335,-0.2374,-0.2386,-0.2376,-0.2378,-0.238,-0.2362,-0.2361,-0.2372,-0.2372,-0.2372,0,-0.2022,-0.2065,-0.2088,-0.2118,-0.2145,-0.2162,-0.2186,-0.2208,-0.2251,-0.2266,-0.2273,-0.2332,-0.2336,-0.2358,-0.2371,-0.2378,-0.2364,-0.236,-0.2382,-0.2383,-0.2384,-0.2365,-0.2364,-0.2375,-0.2374,-0.2374,-0.2374,0,-0.204,-0.2082,-0.2098,-0.2152,-0.2178,-0.2198,-0.2233,-0.226,-0.2293,-0.2316,-0.2353,-0.2364,-0.2392,-0.2402,-0.2402,-0.2414,-0.24,-0.2394,-0.2361,-0.239,-0.2369,-0.2366,-0.2378,-0.2377,-0.2377,-0.2376,0,0,-0.2013,-0.2094,-0.2103,-0.2132,-0.2194,-0.2213,-0.2262,-0.2305,-0.2335,-0.2369,-0.2408,-0.2435,-0.2434,-0.2438,-0.2439,-0.2429,-0.243,-0.2415,-0.2413,-0.2391,-0.2403,-0.2305,-0.2293,-0.243,-0.243,-0.243,-0.2389,0,-0.2022,-0.2084,-0.2127,-0.2189,-0.2222,-0.2258,-0.2312,-0.2342,-0.2378,-0.2422,-0.2418,-0.2456,-0.2451,-0.246,-0.2453,-0.2439,-0.2425,-0.2441,-0.2383,-0.2381,-0.2285,-0.2288,-0.212,-0.2061,-0.2386,-0.2386,-0.2386,0,-0.202,-0.2075,-0.2128,-0.2212,-0.2228,-0.2274,-0.234,-0.238,-0.2428,-0.2448,-0.2468,-0.248,-0.2483,-0.2471,-0.2446,-0.2458,-0.2431,-0.2411,-0.241,-0.2293,-0.2278,-0.2084,-0.2044,-0.2381,-0.2382,-0.2382,-0.2382,0,-0.1981,-0.2072,-0.2117,-0.2146,-0.2242,-0.2274,-0.2329,-0.2388,-0.2412,-0.2461,-0.2476,-0.2491,-0.2488,-0.2468,-0.243,-0.2443,-0.2384,-0.2398,-0.2282,-0.2275,-0.2104,-0.2082,-0.2366,-0.2366,-0.2366,-0.2366,-0.2366,0,-0.1975,-0.2012,-0.2106,-0.2137,-0.2188,-0.226,-0.231,-0.2359,-0.2417,-0.243,-0.2482,-0.2478,-0.2484,-0.2456,-0.2429,-0.2333,-0.2381,-0.227,-0.2252,-0.2118,-0.2098,-0.2353,-0.2352,-0.2365,-0.2365,-0.2365,-0.2366,0,-0.1905,-0.1979,-0.2029,-0.2137,-0.2169,-0.22,-0.2295,-0.2321,-0.2392,-0.2407,-0.2419,-0.246,-0.2414,-0.2399,-0.2352,-0.2309,-0.2247,-0.22,-0.2036,-0.1998,-0.2151,-0.2153,-0.2076,-0.2072,-0.2069,-0.2066,-0.2064,0,-0.1876,-0.1896,-0.1993,-0.2027,-0.208,-0.2144,-0.2181,-0.2283,-0.2309,-0.2375,-0.2366,-0.2358,-0.2302,-0.2209,-0.2123,-0.2036,-0.2131,-0.1853,-0.1843,-0.2127,-0.2118,-0.2126,-0.2133,-0.1646,-0.164,-0.1636,-0.1632,0,-0.181,-0.1836,-0.1875,-0.1932,-0.1988,-0.2027,-0.21,-0.212,-0.2212,-0.2224,-0.2211,-0.2178,-0.2094,-0.1917,-0.1822,-0.1759,-0.1858,-0.1756,-0.2081,-0.1745,-0.1717,-0.1711,-0.1732,-0.1592,-0.1596,-0.1599,-0.1601,-0.1603,-0.1734,-0.1735,-0.1777,-0.1813,-0.1868,-0.1883,-0.1872,-0.1939,-0.194,-0.1919,-0.1988,-0.1873,-0.1852,-0.1592,-0.1499,-0.143,-0.1563,-0.1514,-0.153,-0.155,-0.1507,-0.1475,-0.1295,-0.1298,-0.13,-0.1301,-0.1303,0,-0.1616,-0.1632,-0.1661,-0.1697,-0.1684,-0.1752,-0.1777,-0.1728,-0.1672,-0.1674,-0.1625,-0.1431,-0.1302,-0.1288,-0.1107,-0.1078,-0.1086,-0.1045,-0.1067,-0.1106,-0.1141,-0.108,-0.0754,-0.0752,-0.0751,-0.075,0,0,-0.1557,-0.1525,-0.1533,-0.1484,-0.1507,-0.1428,-0.1404,-0.1351,-0.1319,-0.1215,-0.1148,-0.1206,-0.1232,-0.0993,-0.0938,-0.0816,-0.0953,-0.0768,-0.1205,-0.1267,-0.1301,-0.1401,-0.1348,0,0,0,0,0]},{"header":{"parameterUnit":"m.s-1","parameterCategory":2,"la1":30.2991,"la2":30.254,"lo1":-89.0895,"lo2":-89.0444,"dy":0.0017,"dx":0.0017,"nx":28,"ny":28,"refTime":"2024-03-15T21:00:00:Z","depth":"2","parameterNumber":3,"parameterNumberName":"V-component_of_CURRENTS"},"data":[0,0,0,0,0,0,0,0,0,0,0,0,0,0,0,0,0,0,0,0,0,0,0,0,0,0,0,0,0,0,0,0,0,0,0,0,0,0,0,0,0,0,0,0,0,0,0,0,0,0,0,0,0,0,0,0,0,0,-0.0359,-0.0359,0,-0.0287,-0.0286,-0.0285,-0.0235,-0.0234,-0.0234,-0.0233,-0.0115,-0.0112,-0.0109,0,0,0,0,0,0,0,0,0,0,0,0,0,-0.0374,-0.0374,-0.036,-0.0359,-0.0358,-0.0287,-0.0286,-0.0285,-0.0235,-0.0234,-0.0234,-0.0233,-0.0116,-0.0112,-0.0109,0,0,0,0,0,0,0,0,0,0,0,0,0,-0.0342,-0.0374,-0.036,-0.0324,-0.032,-0.0287,-0.0286,-0.0285,-0.0235,-0.0234,-0.0234,-0.0233,-0.0117,-0.0113,-0.0108,-0.0096,0,0,-0.0096,-0.0094,0,0,0,0,0,0,0,0,-0.0343,-0.0341,-0.033,-0.0326,-0.0322,-0.0269,-0.0247,-0.0219,-0.0235,-0.0268,-0.0233,-0.0233,-0.0162,-0.0154,-0.0143,-0.009,-0.0085,-0.0095,-0.0093,-0.0091,-0.009,0,0,0,0,0,0,0,-0.0346,-0.0343,-0.0331,-0.0329,-0.0324,-0.0283,-0.0279,-0.0242,-0.0219,-0.0265,-0.0261,-0.0252,-0.0159,-0.0147,-0.014,-0.0083,-0.0096,-0.0092,-0.0089,-0.0088,0.0012,0.0012,0,0,0,0,0,0,-0.0359,-0.0346,-0.0333,-0.0329,-0.0331,-0.0284,-0.0279,-0.0287,-0.022,-0.0209,-0.0253,-0.025,-0.0155,-0.0145,-0.0135,-0.0101,-0.0091,-0.0087,-0.0085,0.0012,0.0012,0.0012,0,0,0,0,0,0,-0.036,-0.036,-0.0336,-0.0334,-0.0328,-0.0285,-0.0294,-0.0286,-0.0269,-0.0211,-0.02,-0.0244,-0.0154,-0.0141,-0.0098,-0.0096,-0.0085,-0.0082,0.0012,0.0012,0.0012,-0.0041,0,0,0,0,0,0,-0.0361,-0.0361,-0.0367,-0.0336,-0.0329,-0.0326,-0.0294,-0.0285,-0.0265,-0.0261,-0.02,-0.0189,-0.0152,-0.0104,-0.0094,-0.009,-0.0078,0.0011,0.0012,0.0012,-0.0039,-0.0042,-0.0045,0,0,0,0,0,-0.0362,-0.0382,-0.0369,-0.0366,-0.0342,-0.0327,-0.032,-0.0286,-0.0266,-0.0267,-0.0218,-0.0191,-0.0095,-0.0101,-0.0088,-0.0084,0.0011,0.0012,0.0012,-0.0038,-0.0042,-0.0045,0,0,0,0,0,0,-0.0393,-0.0378,-0.0362,-0.0377,-0.0355,-0.0318,-0.0314,-0.0289,-0.0252,-0.0247,-0.0187,-0.0172,-0.0136,-0.0102,-0.011,-0.0054,-0.0038,-0.0035,-0.008,-0.0083,-0.0086,-0.0102,-0.0075,0,0,0,0,0,-0.0403,-0.0413,-0.0387,-0.0397,-0.0389,-0.0351,-0.0338,-0.032,-0.0284,-0.0268,-0.0219,-0.0169,-0.0126,-0.0099,-0.0062,-0.0028,0.0009,-0.0017,-0.002,-0.0023,-0.0027,0.0036,0.0038,0.0013,0.0013,0.0013,0,0,-0.0419,-0.0409,-0.0416,-0.0403,-0.0382,-0.0379,-0.0342,-0.0335,-0.0324,-0.026,-0.0225,-0.0181,-0.0121,-0.0086,-0.0066,-0.0055,0.0003,-0.0022,-0.0025,-0.0027,0.0036,0.0039,0.0041,0.0014,0.0014,0.0014,0,0,-0.0456,-0.0447,-0.0466,-0.0451,-0.0429,-0.0405,-0.0405,-0.037,-0.0346,-0.0313,-0.0261,-0.0211,-0.015,-0.0101,-0.0069,-0.0063,-0.0019,-0.0056,-0.0076,-0.0016,-0.0013,-0.0011,0.0032,0.0039,-0.0052,-0.0052,-0.0052,0,-0.0472,-0.0493,-0.0467,-0.0474,-0.0464,-0.042,-0.0431,-0.0402,-0.0353,-0.0328,-0.0312,-0.0204,-0.0155,-0.0094,-0.0094,-0.0069,-0.0037,-0.0069,-0.002,-0.0017,-0.0013,0.0031,0.0039,-0.0055,-0.0054,-0.0054,-0.0054,0,-0.0518,-0.0528,-0.0537,-0.0531,-0.0516,-0.0522,-0.048,-0.0457,-0.0419,-0.038,-0.0319,-0.0247,-0.0179,-0.0157,-0.0124,-0.0072,-0.0059,-0.0036,-0.0015,-0.0014,0.0032,0.0042,-0.0058,-0.0057,-0.0057,-0.0056,0,0,-0.0577,-0.0573,-0.0576,-0.0578,-0.0549,-0.0544,-0.0521,-0.0483,-0.046,-0.0402,-0.036,-0.0279,-0.0234,-0.0195,-0.0139,-0.0086,-0.0033,-0.0059,-0.0054,-0.0023,0.0086,0.0117,0.013,-0.0004,-0.0003,-0.0001,0.0105,0,-0.062,-0.0653,-0.0631,-0.0648,-0.0659,-0.0606,-0.0585,-0.0541,-0.0488,-0.0436,-0.0349,-0.0293,-0.0249,-0.0217,-0.0156,-0.0064,-0.0009,-0.0065,0.0087,0.0091,0.0113,0.0142,0.0121,0.0216,0.0115,0.0116,0.0118,0,-0.0675,-0.0685,-0.0719,-0.0703,-0.0701,-0.07,-0.0652,-0.0628,-0.054,-0.0495,-0.0418,-0.0348,-0.0254,-0.0223,-0.0063,-0.0104,-0.0018,0.0052,0.0059,0.0112,0.014,0.0202,0.0238,0.0134,0.0133,0.0132,0.0131,0,-0.0734,-0.0745,-0.0773,-0.0771,-0.0746,-0.0742,-0.0723,-0.0651,-0.0622,-0.0533,-0.0496,-0.0376,-0.0311,-0.0191,-0.004,-0.0052,0.0131,0.014,0.025,0.0252,0.0278,0.028,0.0252,0.0252,0.0252,0.0251,0.0251,0,-0.0793,-0.0815,-0.0807,-0.0823,-0.0846,-0.0802,-0.0801,-0.0758,-0.0685,-0.0643,-0.0536,-0.0467,-0.0301,-0.0171,-0.0047,0.0136,0.0135,0.0253,0.029,0.0258,0.0257,0.0221,0.0215,0.0255,0.0254,0.0254,0.0253,0,-0.0856,-0.0857,-0.0886,-0.0876,-0.088,-0.0895,-0.0869,-0.0853,-0.078,-0.072,-0.0693,-0.0529,-0.0353,-0.0182,0.0028,0.0133,0.0299,0.0364,0.0307,0.0335,0.0376,0.0367,0.0491,0.0493,0.0495,0.0496,0.0498,0,-0.0894,-0.0917,-0.0933,-0.096,-0.0965,-0.0978,-0.098,-0.0916,-0.0883,-0.0745,-0.0711,-0.0535,-0.0382,-0.007,0.0146,0.0375,0.0367,0.0474,0.0456,0.0382,0.0405,0.0393,0.0381,0.0466,0.0467,0.0467,0.0468,0,-0.0951,-0.0954,-0.0972,-0.103,-0.1057,-0.107,-0.1062,-0.1048,-0.0947,-0.0862,-0.0705,-0.0573,-0.027,-0.0002,0.0276,0.0399,0.0432,0.0497,0.046,0.0404,0.0366,0.0385,0.0374,0.0475,0.0474,0.0473,0.0473,0.0473,-0.0983,-0.1012,-0.1039,-0.1091,-0.1123,-0.1139,-0.1136,-0.108,-0.1005,-0.0835,-0.0712,-0.0467,-0.0239,0.0189,0.0379,0.0544,0.0531,0.0567,0.0562,0.0556,0.053,0.0497,0.0624,0.0624,0.0625,0.0625,0.0625,0,-0.1012,-0.1047,-0.1099,-0.1151,-0.1185,-0.1187,-0.1163,-0.1108,-0.0996,-0.0815,-0.0627,-0.032,-0.0028,0.0208,0.0489,0.0641,0.0612,0.0651,0.0586,0.0579,0.0572,0.0543,0.0644,0.0644,0.0645,0.0646,0,0,-0.1034,-0.1082,-0.1107,-0.1182,-0.1218,-0.1224,-0.12,-0.1077,-0.0933,-0.0715,-0.051,-0.0279,-0.0001,0.0206,0.039,0.0531,0.0506,0.0532,0.0499,0.0391,0.0383,0.0506,0.0451,0,0,0,0,0]}],[{"header":{"parameterUnit":"m.s-1","parameterCategory":2,"la1":30.2991,"la2":30.254,"lo1":-89.0895,"lo2":-89.0444,"dy":0.0017,"dx":0.0017,"nx":28,"ny":28,"refTime":"2024-03-15T21:00:00:Z","depth":"4","parameterNumber":2,"parameterNumberName":"U-component_of_CURRENTS"},"data":[0,0,0,0,0,0,0,0,0,0,0,0,0,0,0,0,0,0,0,0,0,0,0,0,0,0,0,0,0,0,0,0,0,0,0,0,0,0,0,0,0,0,0,0,0,0,0,0,0,0,0,0,0,0,0,0,0,0,-0.1352,-0.1353,0,-0.1416,-0.1416,-0.1417,-0.145,-0.1451,-0.1451,-0.1451,-0.1519,-0.1521,-0.1522,0,0,0,0,0,0,0,0,0,0,0,0,0,-0.125,-0.1252,-0.1352,-0.1353,-0.1354,-0.1416,-0.1416,-0.1417,-0.145,-0.1451,-0.1451,-0.1451,-0.1519,-0.152,-0.1522,0,0,0,0,0,0,0,0,0,0,0,0,0,-0.13,-0.1252,-0.1352,-0.138,-0.1384,-0.1416,-0.1416,-0.1417,-0.145,-0.1451,-0.1451,-0.1452,-0.1518,-0.152,-0.1522,-0.1528,0,0,-0.1529,-0.153,0,0,0,0,0,0,0,0,-0.1297,-0.1303,-0.1375,-0.1378,-0.1382,-0.1428,-0.1405,-0.1455,-0.145,-0.1422,-0.1451,-0.1452,-0.149,-0.1495,-0.1502,-0.1531,-0.1534,-0.153,-0.1531,-0.1532,-0.1533,0,0,0,0,0,0,0,-0.1293,-0.1301,-0.1375,-0.1376,-0.1381,-0.1387,-0.1394,-0.1415,-0.1451,-0.1425,-0.1428,-0.1439,-0.1492,-0.15,-0.1504,-0.1535,-0.153,-0.1532,-0.1533,-0.1534,-0.1648,-0.165,0,0,0,0,0,0,-0.1291,-0.1297,-0.1373,-0.1377,-0.1343,-0.1388,-0.1396,-0.1411,-0.1451,-0.1458,-0.1439,-0.144,-0.1496,-0.1501,-0.1507,-0.159,-0.1532,-0.1534,-0.1536,-0.1646,-0.1648,-0.165,0,0,0,0,0,0,-0.1289,-0.1297,-0.137,-0.134,-0.135,-0.139,-0.1405,-0.1412,-0.1444,-0.1462,-0.1469,-0.1467,-0.1496,-0.1503,-0.155,-0.159,-0.1535,-0.1537,-0.1644,-0.1647,-0.1649,-0.1708,0,0,0,0,0,0,-0.1286,-0.1296,-0.1313,-0.134,-0.1352,-0.1406,-0.1406,-0.1413,-0.1449,-0.1453,-0.1488,-0.1493,-0.1497,-0.1547,-0.1552,-0.1592,-0.1539,-0.1642,-0.1645,-0.1648,-0.1704,-0.1712,-0.1719,0,0,0,0,0,-0.1282,-0.1299,-0.1314,-0.1324,-0.1372,-0.1407,-0.1414,-0.144,-0.1451,-0.147,-0.1497,-0.1494,-0.157,-0.155,-0.1556,-0.1597,-0.1641,-0.1645,-0.1648,-0.1701,-0.1711,-0.1719,0,0,0,0,0,0,-0.1262,-0.1306,-0.1322,-0.1352,-0.1386,-0.1414,-0.1436,-0.1454,-0.149,-0.1498,-0.1513,-0.1521,-0.1576,-0.1578,-0.1555,-0.1639,-0.1606,-0.1611,-0.1644,-0.1653,-0.1661,-0.165,-0.1541,0,0,0,0,0,-0.1267,-0.1294,-0.1333,-0.136,-0.1379,-0.1412,-0.1433,-0.1453,-0.1484,-0.1501,-0.153,-0.156,-0.1592,-0.1616,-0.1639,-0.1685,-0.1669,-0.1716,-0.1724,-0.173,-0.1726,-0.1739,-0.1747,-0.1662,-0.1662,-0.1662,0,0,-0.1267,-0.1295,-0.1311,-0.1359,-0.1386,-0.1424,-0.1426,-0.1464,-0.1503,-0.1502,-0.1568,-0.1588,-0.161,-0.1663,-0.1688,-0.1673,-0.1748,-0.1735,-0.174,-0.1732,-0.1744,-0.1752,-0.1759,-0.1665,-0.1664,-0.1664,0,0,-0.1275,-0.1307,-0.1333,-0.1368,-0.1418,-0.1441,-0.1458,-0.1504,-0.1535,-0.1592,-0.1605,-0.1645,-0.1701,-0.1722,-0.1739,-0.1802,-0.1785,-0.1821,-0.1856,-0.1869,-0.1876,-0.1881,-0.1872,-0.1877,-0.1828,-0.1828,-0.1828,0,-0.1275,-0.1316,-0.1346,-0.1384,-0.142,-0.1454,-0.1494,-0.153,-0.1588,-0.1618,-0.1622,-0.1706,-0.1726,-0.1785,-0.1811,-0.182,-0.1817,-0.1819,-0.1878,-0.1883,-0.1887,-0.1877,-0.1881,-0.1831,-0.1831,-0.183,-0.183,0,-0.1301,-0.1346,-0.1366,-0.1429,-0.1468,-0.1508,-0.1562,-0.1609,-0.1649,-0.1682,-0.1753,-0.1778,-0.1823,-0.1846,-0.1852,-0.1907,-0.189,-0.1882,-0.185,-0.1899,-0.1885,-0.1888,-0.1836,-0.1835,-0.1834,-0.1833,0,0,-0.1263,-0.1366,-0.1375,-0.1418,-0.1498,-0.153,-0.1603,-0.1671,-0.1719,-0.1773,-0.1831,-0.189,-0.1898,-0.1917,-0.1931,-0.1949,-0.1984,-0.1938,-0.1937,-0.1921,-0.2003,-0.1846,-0.1834,-0.1992,-0.1993,-0.1994,-0.198,0,-0.1277,-0.1354,-0.1405,-0.1485,-0.1528,-0.1594,-0.1661,-0.1727,-0.1781,-0.1843,-0.1876,-0.1932,-0.1928,-0.1955,-0.1975,-0.1986,-0.1995,-0.1987,-0.1964,-0.1963,-0.1811,-0.1833,-0.1997,-0.1982,-0.1982,-0.1983,-0.1983,0,-0.1278,-0.1335,-0.1418,-0.1524,-0.155,-0.1608,-0.1711,-0.1774,-0.1863,-0.1904,-0.1954,-0.1977,-0.2024,-0.2007,-0.2034,-0.2033,-0.2022,-0.2018,-0.2017,-0.1847,-0.181,-0.1923,-0.1988,-0.1987,-0.1987,-0.1987,-0.1986,0,-0.1227,-0.1337,-0.1406,-0.1446,-0.1571,-0.1628,-0.1695,-0.1794,-0.185,-0.194,-0.1975,-0.2028,-0.2054,-0.206,-0.2046,-0.2054,-0.2051,-0.2057,-0.1899,-0.1888,-0.2009,-0.2003,-0.2062,-0.2062,-0.2062,-0.2062,-0.2062,0,-0.1209,-0.1261,-0.1395,-0.1436,-0.1519,-0.1614,-0.1705,-0.1777,-0.1877,-0.1926,-0.1997,-0.2018,-0.207,-0.2071,-0.2058,-0.1969,-0.2056,-0.1894,-0.1871,-0.2034,-0.2032,-0.201,-0.2004,-0.2061,-0.2061,-0.2061,-0.2062,0,-0.1137,-0.1228,-0.1313,-0.1457,-0.1501,-0.156,-0.1703,-0.1761,-0.1862,-0.1924,-0.1951,-0.2024,-0.2008,-0.202,-0.2021,-0.1957,-0.1908,-0.1854,-0.2011,-0.1999,-0.1738,-0.1736,-0.1683,-0.1678,-0.1673,-0.1669,-0.1665,0,-0.1103,-0.1147,-0.1306,-0.1359,-0.143,-0.1534,-0.1604,-0.1735,-0.1789,-0.1898,-0.1908,-0.1935,-0.1954,-0.1816,-0.1855,-0.1793,-0.177,-0.1744,-0.1752,-0.1714,-0.1699,-0.1704,-0.1708,-0.1658,-0.1656,-0.1655,-0.1654,0,-0.104,-0.1114,-0.1189,-0.1293,-0.138,-0.1461,-0.1564,-0.159,-0.1722,-0.1828,-0.1799,-0.177,-0.1737,-0.1708,-0.1657,-0.1624,-0.1766,-0.1693,-0.1704,-0.1711,-0.1683,-0.1673,-0.1683,-0.1637,-0.164,-0.1641,-0.1642,0,-0.0985,-0.1023,-0.113,-0.1208,-0.1308,-0.1351,-0.1424,-0.1475,-0.1535,-0.1658,-0.1639,-0.1654,-0.1715,-0.1618,-0.158,-0.1518,-0.1502,-0.1469,-0.1491,-0.151,-0.1456,-0.1395,-0.123,0,0,0,0,0,-0.0919,-0.0956,-0.1033,-0.1117,-0.121,-0.1257,-0.1381,-0.1456,-0.1579,-0.1512,-0.1569,-0.1523,-0.145,-0.1469,-0.1363,-0.1502,-0.1512,-0.1376,-0.1488,-0.1544,-0.1563,-0.1514,0,0,0,0,0,0,-0.0876,-0.0944,-0.0994,-0.1015,-0.1048,-0.1128,-0.1196,-0.1283,-0.1259,-0.1378,-0.1339,-0.1423,-0.1369,-0.1465,-0.1324,-0.1328,-0.1367,-0.1399,-0.1395,-0.1533,-0.155,-0.1566,-0.1522,0,0,0,0,0]},{"header":{"parameterUnit":"m.s-1","parameterCategory":2,"la1":30.2991,"la2":30.254,"lo1":-89.0895,"lo2":-89.0444,"dy":0.0017,"dx":0.0017,"nx":28,"ny":28,"refTime":"2024-03-15T21:00:00:Z","depth":"4","parameterNumber":3,"parameterNumberName":"V-component_of_CURRENTS"},"data":[0,0,0,0,0,0,0,0,0,0,0,0,0,0,0,0,0,0,0,0,0,0,0,0,0,0,0,0,0,0,0,0,0,0,0,0,0,0,0,0,0,0,0,0,0,0,0,0,0,0,0,0,0,0,0,0,0,0,-0.0302,-0.0302,0,-0.0272,-0.0272,-0.0272,-0.0252,-0.0252,-0.0252,-0.0251,-0.0176,-0.0174,-0.0173,0,0,0,0,0,0,0,0,0,0,0,0,0,-0.0282,-0.0283,-0.0302,-0.0302,-0.0301,-0.0272,-0.0272,-0.0272,-0.0252,-0.0252,-0.0252,-0.0251,-0.0177,-0.0175,-0.0172,0,0,0,0,0,0,0,0,0,0,0,0,0,-0.0277,-0.0284,-0.0302,-0.0288,-0.0286,-0.0273,-0.0272,-0.0272,-0.0252,-0.0252,-0.0252,-0.0251,-0.0177,-0.0175,-0.0172,-0.0161,0,0,-0.0164,-0.0163,0,0,0,0,0,0,0,0,-0.0277,-0.0277,-0.029,-0.0289,-0.0287,-0.0265,-0.0237,-0.0232,-0.0252,-0.0266,-0.0251,-0.0251,-0.0201,-0.0197,-0.0193,-0.0158,-0.0154,-0.0164,-0.0162,-0.0161,-0.016,0,0,0,0,0,0,0,-0.0277,-0.0278,-0.0291,-0.029,-0.0288,-0.0262,-0.0261,-0.0236,-0.0235,-0.0264,-0.0263,-0.0258,-0.02,-0.0196,-0.0191,-0.0153,-0.0164,-0.0161,-0.016,-0.0158,-0.01,-0.01,0,0,0,0,0,0,-0.0283,-0.0279,-0.0292,-0.029,-0.028,-0.0263,-0.0262,-0.0273,-0.0236,-0.0231,-0.0259,-0.0258,-0.0201,-0.0195,-0.0189,-0.017,-0.0161,-0.0158,-0.0157,-0.01,-0.01,-0.01,0,0,0,0,0,0,-0.0283,-0.0286,-0.0293,-0.0282,-0.0281,-0.0264,-0.0276,-0.0272,-0.027,-0.0233,-0.0226,-0.026,-0.02,-0.0192,-0.0171,-0.0166,-0.0157,-0.0154,-0.01,-0.01,-0.01,-0.0134,0,0,0,0,0,0,-0.0283,-0.0286,-0.0296,-0.0283,-0.0282,-0.0293,-0.0276,-0.0272,-0.0267,-0.0266,-0.0231,-0.0224,-0.02,-0.0175,-0.0168,-0.0163,-0.0152,-0.01,-0.01,-0.01,-0.0132,-0.0135,-0.0137,0,0,0,0,0,-0.0283,-0.0302,-0.0297,-0.0298,-0.0297,-0.0293,-0.0291,-0.0276,-0.0268,-0.0272,-0.0247,-0.0225,-0.0171,-0.0173,-0.0165,-0.0158,-0.0099,-0.01,-0.01,-0.0131,-0.0134,-0.0137,0,0,0,0,0,0,-0.0299,-0.0301,-0.0295,-0.0314,-0.0306,-0.029,-0.0292,-0.0281,-0.0265,-0.0265,-0.0227,-0.0218,-0.02,-0.0176,-0.0179,-0.0143,-0.0131,-0.013,-0.0158,-0.016,-0.0163,-0.0166,-0.015,0,0,0,0,0,-0.0307,-0.0323,-0.0313,-0.0328,-0.0326,-0.031,-0.0306,-0.0299,-0.0282,-0.0276,-0.025,-0.0221,-0.0194,-0.0176,-0.0155,-0.0132,-0.0096,-0.0122,-0.0124,-0.0126,-0.0124,-0.0058,-0.0053,-0.0101,-0.0101,-0.0101,0,0,-0.0318,-0.0319,-0.0329,-0.0332,-0.0325,-0.0329,-0.0308,-0.0311,-0.0308,-0.0269,-0.0259,-0.0232,-0.0193,-0.0172,-0.016,-0.0149,-0.0098,-0.0127,-0.0129,-0.0125,-0.0057,-0.0053,-0.0048,-0.0101,-0.0101,-0.0101,0,0,-0.0346,-0.035,-0.037,-0.0366,-0.036,-0.0349,-0.0352,-0.0339,-0.0328,-0.0316,-0.0285,-0.0252,-0.0221,-0.0182,-0.0159,-0.0159,-0.0118,-0.0158,-0.0162,-0.0099,-0.0094,-0.0089,-0.0053,-0.0044,-0.0152,-0.0152,-0.0152,0,-0.0357,-0.0382,-0.0373,-0.0385,-0.0383,-0.0361,-0.0374,-0.036,-0.034,-0.0324,-0.032,-0.0252,-0.0221,-0.0171,-0.0175,-0.0162,-0.0132,-0.0156,-0.0101,-0.0095,-0.009,-0.0053,-0.0043,-0.0153,-0.0153,-0.0153,-0.0153,0,-0.0395,-0.0412,-0.0422,-0.0431,-0.0427,-0.0437,-0.0415,-0.0406,-0.0389,-0.0364,-0.0323,-0.0276,-0.0229,-0.0215,-0.0196,-0.0142,-0.0136,-0.0117,-0.0093,-0.0087,-0.0049,-0.0038,-0.0156,-0.0155,-0.0155,-0.0154,0,0,-0.0427,-0.0448,-0.0451,-0.046,-0.0453,-0.0455,-0.0446,-0.0424,-0.041,-0.0377,-0.0344,-0.0291,-0.0257,-0.0229,-0.019,-0.0134,-0.0076,-0.0115,-0.0111,-0.0079,0.0046,0.0021,0.003,-0.0046,-0.0044,-0.0043,0.0052,0,-0.0459,-0.0496,-0.0492,-0.0517,-0.053,-0.0503,-0.0494,-0.0467,-0.0435,-0.0398,-0.0329,-0.0291,-0.0263,-0.024,-0.0178,-0.0104,-0.0047,-0.0104,0.0035,0.0039,0.0017,0.0042,-0.0037,0.006,0.0062,0.0064,0.0066,0,-0.0496,-0.0513,-0.0551,-0.0555,-0.0558,-0.0567,-0.054,-0.053,-0.0466,-0.0435,-0.0373,-0.0321,-0.0238,-0.0217,-0.0072,-0.0113,-0.0038,0.0023,0.0028,0.0027,0.0034,0.0057,0.0085,0.0084,0.0082,0.0081,0.008,0,-0.0522,-0.055,-0.0583,-0.0588,-0.059,-0.0596,-0.0591,-0.0544,-0.0527,-0.0457,-0.0428,-0.0326,-0.0274,-0.0161,-0.0044,-0.0054,0.0113,0.0122,0.0173,0.0171,0.018,0.0174,0.0236,0.0235,0.0235,0.0235,0.0235,0,-0.0554,-0.0579,-0.0604,-0.0622,-0.0651,-0.0634,-0.0644,-0.0617,-0.0568,-0.0538,-0.0454,-0.0396,-0.0256,-0.0147,-0.0041,0.0093,0.0123,0.0178,0.0202,0.016,0.0151,0.0187,0.018,0.0238,0.0238,0.0237,0.0236,0,-0.0579,-0.06,-0.0639,-0.0659,-0.0672,-0.0692,-0.0698,-0.069,-0.0639,-0.0595,-0.0573,-0.0444,-0.0303,-0.0164,0.0021,0.009,0.0225,0.0268,0.0198,0.0215,0.0237,0.0227,0.0333,0.0333,0.0333,0.0333,0.0333,0,-0.0594,-0.0621,-0.0675,-0.0708,-0.0728,-0.0756,-0.077,-0.0736,-0.0715,-0.0614,-0.0583,-0.0449,-0.0352,-0.0103,0.0029,0.0225,0.0251,0.0306,0.0285,0.0238,0.0251,0.0241,0.0232,0.0333,0.0333,0.0333,0.0333,0,-0.0615,-0.0644,-0.0677,-0.0751,-0.0791,-0.0819,-0.083,-0.0816,-0.0753,-0.071,-0.0564,-0.0428,-0.0274,-0.0097,0.0047,0.019,0.026,0.0307,0.0308,0.0289,0.024,0.0251,0.0241,0.0333,0.0333,0.0333,0.0333,0,-0.0625,-0.066,-0.0718,-0.0777,-0.0834,-0.0859,-0.0862,-0.0811,-0.0776,-0.0647,-0.0601,-0.0417,-0.0309,-0.0114,0.0027,0.0151,0.0179,0.021,0.0217,0.0218,0.0147,0.0066,0.0137,0,0,0,0,0,-0.0625,-0.0672,-0.0737,-0.0801,-0.0858,-0.0887,-0.0886,-0.0869,-0.0806,-0.0702,-0.0642,-0.0485,-0.0257,-0.0152,-0.0029,-0.0003,0.017,0.014,0.0201,0.0335,0.0334,0.0268,0,0,0,0,0,0,-0.063,-0.0693,-0.0734,-0.0806,-0.0853,-0.0902,-0.0902,-0.0862,-0.0784,-0.0702,-0.0571,-0.0478,-0.0256,-0.0327,-0.0033,0.0004,0.0054,0.0255,0.0257,0.0335,0.0335,0.0334,0.0266,0,0,0,0,0]}]]